Tracking 22779 objects as of 13-Apr-2021
HD Live streaming from Space Station
objects crossing your sky now

AMC-2 (GE-2)

Track AMC-2 (GE-2) now!
AMC-2 (GE-2) is classified as:


NORAD ID: 24713
Int'l Code: 1997-002A
Perigee: 35,990.2 km
Apogee: 36,051.5 km
Inclination: 6.9 °
Period: 1,447.7 minutes
Semi major axis: 42391 km
RCS: 28.4382 m2 (large)
Launch date: January 30, 1997
Source: SOCIETE EUROPEENNE DES SATELLITES (SES)
Launch site: FRENCH GUIANA (FRGUI)

Broadcasting, business, cable; CONUS, Hawaii, Caribbean, southern Canada; 24 Ku- and 24 C-band
aabbcc
Your satellite tracking list
Your tracking list is empty




NASA's NSSDC Master Catalog

Two Line Element Set (TLE):
1 24713U 97002A   21103.39584782 -.00000062  00000-0  00000+0 0  9996
2 24713   6.9473  58.7172 0007223   3.1347 190.3059  0.99467056 39353
Source of the keplerian elements: AFSPC